When you browse on this site, cookies collect data to enhance your experience and personalize the content and advertising you see.
Visit our Privacy Policy to learn more. By continuing to use the site, you agree to this use of cookies and data.
  • en Suisse
  • Liste des pays
  • À 7 jours
  • Température de l'eau
  • Carte satellitaire
  • Carte météo
  • Widgets météo
  • user-avatar
    Se connecter

    Météo par heure à Recife

    Ce jour, 24 Janvier, Jeudi

    Heure Température Précipitation Vent Pression Humidité
    00:00 +28°C° 0 mm 3 m/s 759 mmHg 79%
    01:00 +27°C° 0 mm 3 m/s 758 mmHg 80%
    02:00 +27°C° 0 mm 3 m/s 758 mmHg 80%
    03:00 +27°C° 0 mm 3 m/s 758 mmHg 80%
    04:00 +27°C° 0 mm 3 m/s 758 mmHg 79%
    05:00 +27°C° 0 mm 3 m/s 758 mmHg 79%
    06:00 +27°C° 0 mm 3 m/s 758 mmHg 78%
    07:00 +28°C° 0 mm 3 m/s 758 mmHg 78%
    08:00 +29°C° 0 mm 3 m/s 759 mmHg 71%
    09:00 +30°C° 0 mm 3 m/s 759 mmHg 64%
    10:00 +33°C° 0 mm 3 m/s 759 mmHg 57%
    11:00 +33°C° 0 mm 4 m/s 759 mmHg 55%
    12:00 +34°C° 0 mm 4 m/s 759 mmHg 53%
    13:00 +35°C° 0 mm 4 m/s 759 mmHg 51%
    14:00 +34°C° 0 mm 4 m/s 758 mmHg 53%
    15:00 +34°C° 0 mm 5 m/s 758 mmHg 56%
    16:00 +34°C° 0 mm 5 m/s 757 mmHg 58%
    17:00 +32°C° 0 mm 5 m/s 757 mmHg 63%
    18:00 +30°C° 0 mm 4 m/s 757 mmHg 69%
    19:00 +29°C° 0 mm 4 m/s 757 mmHg 74%
    20:00 +29°C° 0.1 mm 4 m/s 758 mmHg 76%
    21:00 +28°C° 0.1 mm 4 m/s 758 mmHg 78%
    22:00 +28°C° 0.1 mm 4 m/s 759 mmHg 80%
    23:00 +28°C° 0 mm 4 m/s 759 mmHg 80%

    Demain, 25 Janvier, Vendredi

    Heure Température Précipitation Vent Pression Humidité
    00:00 +28°C° 0 mm 3 m/s 759 mmHg 81%
    01:00 +27°C° 0 mm 3 m/s 759 mmHg 82%
    02:00 +27°C° 0 mm 3 m/s 758 mmHg 83%
    03:00 +27°C° 0 mm 3 m/s 758 mmHg 83%
    04:00 +27°C° 0 mm 3 m/s 757 mmHg 83%
    05:00 +27°C° 0 mm 3 m/s 758 mmHg 82%
    06:00 +27°C° 0 mm 3 m/s 758 mmHg 80%
    07:00 +27°C° 0 mm 3 m/s 758 mmHg 79%
    08:00 +29°C° 0 mm 3 m/s 758 mmHg 71%
    09:00 +30°C° 0 mm 3 m/s 759 mmHg 64%
    10:00 +33°C° 0 mm 3 m/s 759 mmHg 56%
    11:00 +33°C° 0 mm 4 m/s 759 mmHg 53%
    12:00 +34°C° 0 mm 4 m/s 758 mmHg 51%
    13:00 +35°C° 0 mm 4 m/s 758 mmHg 48%
    14:00 +35°C° 0 mm 4 m/s 757 mmHg 49%
    15:00 +34°C° 0 mm 4 m/s 757 mmHg 49%
    16:00 +34°C° 0 mm 4 m/s 756 mmHg 50%
    17:00 +33°C° 0 mm 4 m/s 757 mmHg 56%
    18:00 +32°C° 0 mm 4 m/s 757 mmHg 63%
    19:00 +29°C° 0 mm 4 m/s 757 mmHg 70%
    20:00 +29°C° 0.1 mm 4 m/s 758 mmHg 73%
    21:00 +29°C° 0.1 mm 4 m/s 758 mmHg 75%
    22:00 +28°C° 0.1 mm 4 m/s 759 mmHg 78%
    23:00 +28°C° 0.6 mm 4 m/s 759 mmHg 80%

    Après-demain, 26 Janvier, Samedi

    Heure Température Précipitation Vent Pression Humidité
    00:00 +28°C° 0.6 mm 3 m/s 759 mmHg 82%
    01:00 +27°C° 0.6 mm 3 m/s 759 mmHg 83%
    02:00 +27°C° 1.3 mm 2 m/s 758 mmHg 84%
    03:00 +27°C° 1.3 mm 2 m/s 758 mmHg 85%
    04:00 +27°C° 1.3 mm 2 m/s 757 mmHg 85%
    05:00 +27°C° 0.5 mm 2 m/s 758 mmHg 84%
    06:00 +27°C° 0.5 mm 2 m/s 758 mmHg 83%
    07:00 +27°C° 0.5 mm 2 m/s 758 mmHg 82%
    08:00 +28°C° 0.6 mm 2 m/s 759 mmHg 77%
    09:00 +30°C° 0.6 mm 2 m/s 759 mmHg 71%
    10:00 +31°C° 0.6 mm 3 m/s 759 mmHg 65%
    11:00 +33°C° 0.9 mm 3 m/s 759 mmHg 61%
    12:00 +33°C° 0.9 mm 3 m/s 759 mmHg 57%
    13:00 +34°C° 0.9 mm 4 m/s 758 mmHg 53%
    14:00 +34°C° 0.1 mm 4 m/s 758 mmHg 54%
    15:00 +34°C° 0.1 mm 4 m/s 757 mmHg 55%
    16:00 +33°C° 0.1 mm 5 m/s 757 mmHg 56%
    17:00 +32°C° 0 mm 4 m/s 757 mmHg 61%
    18:00 +30°C° 0 mm 4 m/s 758 mmHg 66%
    19:00 +29°C° 0 mm 3 m/s 758 mmHg 71%
    20:00 +29°C° 0.2 mm 3 m/s 759 mmHg 73%
    21:00 +29°C° 0.2 mm 3 m/s 759 mmHg 75%
    22:00 +28°C° 0.2 mm 3 m/s 759 mmHg 77%
    23:00 +28°C° 0.9 mm 3 m/s 759 mmHg 78%

    27 Janvier, Dimanche

    Heure Température Précipitation Vent Pression Humidité
    00:00 +28°C° 0.9 mm 3 m/s 759 mmHg 79%
    01:00 +27°C° 0.9 mm 3 m/s 759 mmHg 80%
    02:00 +27°C° 0.4 mm 3 m/s 758 mmHg 80%
    03:00 +27°C° 0.4 mm 3 m/s 758 mmHg 80%
    04:00 +27°C° 0.4 mm 3 m/s 757 mmHg 81%
    05:00 +27°C° 1.3 mm 3 m/s 758 mmHg 81%
    06:00 +27°C° 1.3 mm 2 m/s 758 mmHg 81%
    07:00 +27°C° 1.3 mm 2 m/s 759 mmHg 81%
    08:00 +28°C° 1.4 mm 3 m/s 759 mmHg 74%
    09:00 +30°C° 1.4 mm 3 m/s 759 mmHg 68%
    10:00 +31°C° 1.4 mm 3 m/s 760 mmHg 62%
    11:00 +33°C° 0.2 mm 4 m/s 759 mmHg 60%
    12:00 +34°C° 0.2 mm 4 m/s 759 mmHg 58%
    13:00 +34°C° 0.2 mm 5 m/s 759 mmHg 56%
    14:00 +34°C° 0 mm 5 m/s 758 mmHg 57%
    15:00 +34°C° 0 mm 5 m/s 758 mmHg 58%
    16:00 +33°C° 0 mm 5 m/s 757 mmHg 59%
    17:00 +32°C° 0 mm 5 m/s 757 mmHg 63%
    18:00 +30°C° 0 mm 5 m/s 758 mmHg 68%
    19:00 +29°C° 0 mm 5 m/s 758 mmHg 72%
    20:00 +29°C° 0 mm 4 m/s 759 mmHg 74%
    21:00 +28°C° 0 mm 4 m/s 759 mmHg 75%
    22:00 +28°C° 0 mm 4 m/s 760 mmHg 77%
    23:00 +28°C° 0 mm 3 m/s 759 mmHg 78%

    28 Janvier, Lundi

    Heure Température Précipitation Vent Pression Humidité
    00:00 +28°C° 0 mm 3 m/s 759 mmHg 79%
    01:00 +27°C° 0 mm 3 m/s 758 mmHg 80%
    02:00 +27°C° 0 mm 3 m/s 758 mmHg 81%
    03:00 +27°C° 0 mm 2 m/s 758 mmHg 82%
    04:00 +27°C° 0 mm 2 m/s 758 mmHg 83%
    05:00 +27°C° 0.2 mm 2 m/s 758 mmHg 82%
    06:00 +27°C° 0.2 mm 2 m/s 758 mmHg 82%
    07:00 +27°C° 0.2 mm 2 m/s 758 mmHg 82%
    08:00 +29°C° 0.3 mm 2 m/s 759 mmHg 77%
    09:00 +30°C° 0.3 mm 3 m/s 759 mmHg 72%
    10:00 +32°C° 0.3 mm 4 m/s 759 mmHg 67%
    11:00 +33°C° 0.1 mm 4 m/s 759 mmHg 62%
    12:00 +34°C° 0.1 mm 4 m/s 758 mmHg 57%
    13:00 +35°C° 0.1 mm 4 m/s 758 mmHg 52%
    14:00 +34°C° 0 mm 4 m/s 757 mmHg 52%
    15:00 +34°C° 0 mm 4 m/s 757 mmHg 52%
    16:00 +34°C° 0 mm 4 m/s 756 mmHg 51%
    17:00 +33°C° 0 mm 4 m/s 757 mmHg 58%
    18:00 +30°C° 0 mm 3 m/s 757 mmHg 64%
    19:00 +29°C° 0 mm 3 m/s 758 mmHg 70%
    20:00 +29°C° 0 mm 3 m/s 758 mmHg 73%
    21:00 +28°C° 0 mm 3 m/s 759 mmHg 77%
    22:00 +28°C° 0 mm 3 m/s 759 mmHg 80%
    23:00 +28°C° 0.2 mm 3 m/s 759 mmHg 81%

    29 Janvier, Mardi

    Heure Température Précipitation Vent Pression Humidité
    00:00 +28°C° 0.2 mm 3 m/s 758 mmHg 82%
    01:00 +28°C° 0.2 mm 3 m/s 758 mmHg 82%
    02:00 +27°C° 0.2 mm 3 m/s 758 mmHg 83%
    03:00 +27°C° 0.2 mm 3 m/s 757 mmHg 84%
    04:00 +27°C° 0.2 mm 3 m/s 757 mmHg 85%
    05:00 +27°C° 0.2 mm 3 m/s 757 mmHg 85%
    06:00 +27°C° 0.2 mm 3 m/s 757 mmHg 84%
    07:00 +28°C° 0.2 mm 3 m/s 758 mmHg 84%
    08:00 +29°C° 0.2 mm 4 m/s 758 mmHg 78%
    09:00 +30°C° 0.2 mm 4 m/s 758 mmHg 71%
    10:00 +32°C° 0.2 mm 4 m/s 758 mmHg 65%
    11:00 +33°C° 0.1 mm 4 m/s 758 mmHg 62%
    12:00 +34°C° 0.1 mm 5 m/s 758 mmHg 59%
    13:00 +35°C° 0.1 mm 5 m/s 757 mmHg 56%
    14:00 +34°C° 0 mm 5 m/s 757 mmHg 58%
    15:00 +34°C° 0 mm 5 m/s 756 mmHg 59%
    16:00 +34°C° 0 mm 5 m/s 756 mmHg 61%
    17:00 +32°C° 0 mm 5 m/s 756 mmHg 66%
    18:00 +30°C° 0 mm 4 m/s 757 mmHg 70%
    19:00 +29°C° 0 mm 4 m/s 757 mmHg 75%
    20:00 +29°C° 0.1 mm 4 m/s 757 mmHg 77%
    21:00 +29°C° 0.1 mm 4 m/s 758 mmHg 79%
    22:00 +28°C° 0.1 mm 3 m/s 758 mmHg 81%
    23:00 +28°C° 0.2 mm 3 m/s 758 mmHg 82%
    Voir plus